Time,TemperatureF,DewpointF,PressureIn,WindDirection,WindDirectionDegrees,WindSpeedMPH,WindSpeedGustMPH,Humidity,HourlyPrecipIn,Conditions,Clouds,dailyrainin,SoftwareType,DateUTC
2013-01-09 00:00:00,78.3,78.3,30.03,ESE,114,10.0,10.0,100,0.00,,,0.00,Wunderground v.1.15,2013-01-09 05:00:00,
2013-01-09 00:05:00,77.9,77.9,30.03,East,83,9.0,10.0,100,0.00,,,0.00,Wunderground v.1.15,2013-01-09 05:05:00,
2013-01-09 00:10:00,77.9,77.9,30.03,ESE,112,9.0,9.0,100,0.00,,,0.00,Wunderground v.1.15,2013-01-09 05:10:00,
2013-01-09 00:15:00,77.7,77.7,30.04,ESE,119,9.0,10.0,100,0.00,,,0.00,Wunderground v.1.15,2013-01-09 05:15:00,
2013-01-09 00:25:00,77.6,77.6,30.04,ESE,106,9.0,14.0,100,0.00,,,0.00,Wunderground v.1.15,2013-01-09 05:25:00,
2013-01-09 00:35:00,77.6,77.6,30.03,ESE,104,9.0,18.0,100,0.00,,,0.00,Wunderground v.1.15,2013-01-09 05:35:00,
2013-01-09 00:40:00,77.6,77.6,30.03,East,80,9.0,9.0,100,0.00,,,0.00,Wunderground v.1.15,2013-01-09 05:40:00,
2013-01-09 00:50:00,77.6,77.6,30.04,East,96,8.0,8.0,100,0.00,,,0.00,Wunderground v.1.15,2013-01-09 05:50:00,
2013-01-09 00:55:00,77.6,77.6,30.04,ESE,112,8.0,11.0,100,0.00,,,0.00,Wunderground v.1.15,2013-01-09 05:55:00,
2013-01-09 01:05:00,77.6,77.6,30.04,ESE,110,8.0,8.0,100,0.00,,,0.00,Wunderground v.1.15,2013-01-09 06:05:00,
2013-01-09 01:10:00,77.6,77.6,30.04,ESE,121,9.0,9.0,100,0.00,,,0.00,Wunderground v.1.15,2013-01-09 06:10:00,
2013-01-09 01:20:00,77.6,77.6,30.04,East,86,9.0,11.0,100,0.00,,,0.00,Wunderground v.1.15,2013-01-09 06:20:00,
2013-01-09 01:25:00,77.4,77.4,30.04,ESE,107,9.0,11.0,100,0.00,,,0.00,Wunderground v.1.15,2013-01-09 06:25:00,
2013-01-09 01:35:00,77.2,77.2,30.04,SE,138,8.0,10.0,100,0.00,,,0.00,Wunderground v.1.15,2013-01-09 06:35:00,
2013-01-09 01:40:00,77.2,77.2,30.04,ESE,119,9.0,9.0,100,0.00,,,0.00,Wunderground v.1.15,2013-01-09 06:40:00,
2013-01-09 01:50:00,77.2,77.2,30.04,ESE,107,9.0,11.0,100,0.00,,,0.00,Wunderground v.1.15,2013-01-09 06:50:00,
2013-01-09 01:55:00,77.2,77.2,30.04,East,82,8.0,11.0,100,0.00,,,0.00,Wunderground v.1.15,2013-01-09 06:55:00,
2013-01-09 02:00:00,77.2,77.2,30.04,East,89,8.0,8.0,100,0.00,,,0.00,Wunderground v.1.15,2013-01-09 07:00:00,
2013-01-09 02:10:00,77.2,77.2,30.04,ESE,113,8.0,8.0,100,0.00,,,0.00,Wunderground v.1.15,2013-01-09 07:10:00,
2013-01-09 02:20:00,77.2,77.2,30.04,ENE,73,9.0,9.0,100,0.00,,,0.00,Wunderground v.1.15,2013-01-09 07:20:00,
2013-01-09 02:30:00,77.2,77.2,30.04,ESE,112,8.0,8.0,100,0.00,,,0.00,Wunderground v.1.15,2013-01-09 07:30:00,
2013-01-09 02:40:00,77.2,77.2,30.04,East,83,7.0,7.0,100,0.00,,,0.00,Wunderground v.1.15,2013-01-09 07:40:00,
2013-01-09 02:50:00,77.2,77.2,30.04,SE,126,7.0,9.0,100,0.00,,,0.00,Wunderground v.1.15,2013-01-09 07:50:00,
2013-01-09 03:00:00,77.2,77.2,30.04,East,85,8.0,8.0,100,0.00,,,0.00,Wunderground v.1.15,2013-01-09 08:00:00,
2013-01-09 03:10:00,77.2,77.2,30.04,ESE,114,7.0,8.0,100,0.00,,,0.00,Wunderground v.1.15,2013-01-09 08:10:00,
2013-01-09 03:15:00,77.2,77.2,30.05,ESE,114,7.0,8.0,100,0.00,,,0.00,Wunderground v.1.15,2013-01-09 08:15:00,
2013-01-09 03:20:00,77.2,77.2,30.05,East,92,7.0,7.0,100,0.00,,,0.00,Wunderground v.1.15,2013-01-09 08:20:00,
2013-01-09 03:25:00,77.2,77.2,30.05,ESE,107,7.0,7.0,100,0.00,,,0.00,Wunderground v.1.15,2013-01-09 08:25:00,
2013-01-09 03:30:00,77.2,77.2,30.05,ESE,119,7.0,7.0,100,0.00,,,0.00,Wunderground v.1.15,2013-01-09 08:30:00,
2013-01-09 03:45:00,77.2,77.2,30.05,SE,126,8.0,8.0,100,0.00,,,0.00,Wunderground v.1.15,2013-01-09 08:45:00,
2013-01-09 03:50:00,77.2,77.2,30.05,ESE,113,7.0,10.0,100,0.00,,,0.00,Wunderground v.1.15,2013-01-09 08:50:00,
2013-01-09 03:55:00,77.2,77.2,30.05,East,86,7.0,10.0,100,0.00,,,0.00,Wunderground v.1.15,2013-01-09 08:55:00,
2013-01-09 04:05:00,77.0,77.0,30.06,ENE,76,6.0,7.0,100,0.00,,,0.00,Wunderground v.1.15,2013-01-09 09:05:00,
2013-01-09 04:10:00,77.0,77.0,30.06,ENE,69,6.0,6.0,100,0.00,,,0.00,Wunderground v.1.15,2013-01-09 09:10:00,
2013-01-09 04:15:00,77.0,77.0,30.05,East,95,7.0,10.0,100,0.00,,,0.00,Wunderground v.1.15,2013-01-09 09:15:00,
2013-01-09 04:20:00,77.0,77.0,30.05,ENE,72,7.0,7.0,100,0.00,,,0.00,Wunderground v.1.15,2013-01-09 09:20:00,
2013-01-09 04:25:00,77.0,77.0,30.05,ESE,112,7.0,7.0,100,0.00,,,0.00,Wunderground v.1.15,2013-01-09 09:25:00,
2013-01-09 04:30:00,77.0,77.0,30.06,ESE,113,7.0,7.0,100,0.00,,,0.00,Wunderground v.1.15,2013-01-09 09:30:00,
2013-01-09 04:35:00,77.0,77.0,30.06,East,96,7.0,7.0,100,0.00,,,0.00,Wunderground v.1.15,2013-01-09 09:35:00,
2013-01-09 04:45:00,77.0,77.0,30.06,East,82,7.0,10.0,100,0.00,,,0.00,Wunderground v.1.15,2013-01-09 09:45:00,
2013-01-09 04:50:00,77.0,77.0,30.06,ENE,72,7.0,7.0,100,0.00,,,0.00,Wunderground v.1.15,2013-01-09 09:50:00,
2013-01-09 04:55:00,77.0,77.0,30.06,ESE,107,7.0,7.0,100,0.00,,,0.00,Wunderground v.1.15,2013-01-09 09:55:00,
2013-01-09 05:00:00,77.0,77.0,30.06,SE,124,7.0,7.0,100,0.00,,,0.00,Wunderground v.1.15,2013-01-09 10:00:00,
2013-01-09 05:10:00,77.0,77.0,30.06,ENE,69,7.0,8.0,100,0.00,,,0.00,Wunderground v.1.15,2013-01-09 10:10:00,
2013-01-09 05:15:00,77.0,77.0,30.06,ESE,110,7.0,8.0,100,0.00,,,0.00,Wunderground v.1.15,2013-01-09 10:15:00,
2013-01-09 05:20:00,76.8,76.8,30.06,East,93,6.0,6.0,100,0.00,,,0.00,Wunderground v.1.15,2013-01-09 10:20:00,
2013-01-09 05:25:00,76.8,76.8,30.06,East,85,6.0,6.0,100,0.00,,,0.00,Wunderground v.1.15,2013-01-09 10:25:00,
2013-01-09 05:35:00,76.8,76.8,30.06,East,90,6.0,7.0,100,0.00,,,0.00,Wunderground v.1.15,2013-01-09 10:35:00,
2013-01-09 05:45:00,76.8,76.8,30.07,ENE,68,6.0,6.0,100,0.00,,,0.00,Wunderground v.1.15,2013-01-09 10:45:00,
2013-01-09 05:50:00,76.8,76.8,30.07,East,85,6.0,6.0,100,0.00,,,0.00,Wunderground v.1.15,2013-01-09 10:50:00,
2013-01-09 06:00:00,76.8,76.8,30.07,ESE,106,6.0,6.0,100,0.00,,,0.00,Wunderground v.1.15,2013-01-09 11:00:00,
2013-01-09 06:05:00,76.8,76.8,30.07,SE,136,6.0,8.0,100,0.00,,,0.00,Wunderground v.1.15,2013-01-09 11:05:00,
2013-01-09 06:10:00,76.8,76.8,30.07,East,86,6.0,7.0,100,0.00,,,0.00,Wunderground v.1.15,2013-01-09 11:10:00,
2013-01-09 06:20:00,76.8,76.8,30.08,East,92,6.0,6.0,100,0.00,,,0.00,Wunderground v.1.15,2013-01-09 11:20:00,
2013-01-09 06:25:00,76.8,76.8,30.08,ESE,102,6.0,6.0,100,0.00,,,0.00,Wunderground v.1.15,2013-01-09 11:25:00,
2013-01-09 06:30:00,76.7,76.7,30.08,ESE,103,6.0,7.0,100,0.00,,,0.00,Wunderground v.1.15,2013-01-09 11:30:00,
2013-01-09 06:35:00,76.7,76.7,30.08,ENE,76,7.0,7.0,100,0.00,,,0.00,Wunderground v.1.15,2013-01-09 11:35:00,
2013-01-09 06:40:00,76.8,76.8,30.08,ENE,76,7.0,12.0,100,0.00,,,0.00,Wunderground v.1.15,2013-01-09 11:40:00,
2013-01-09 06:50:00,76.7,76.7,30.08,East,90,7.0,7.0,100,0.00,,,0.00,Wunderground v.1.15,2013-01-09 11:50:00,
2013-01-09 06:55:00,76.8,76.8,30.08,East,86,7.0,7.0,100,0.00,,,0.00,Wunderground v.1.15,2013-01-09 11:55:00,
2013-01-09 07:00:00,76.8,76.8,30.09,ESE,107,7.0,7.0,100,0.00,,,0.00,Wunderground v.1.15,2013-01-09 12:00:00,
2013-01-09 07:10:00,77.0,77.0,30.09,East,93,7.0,7.0,100,0.00,,,0.00,Wunderground v.1.15,2013-01-09 12:10:00,
2013-01-09 07:15:00,76.8,76.8,30.09,East,86,7.0,11.0,100,0.00,,,0.00,Wunderground v.1.15,2013-01-09 12:15:00,
2013-01-09 07:25:00,76.8,76.8,30.09,East,79,7.0,8.0,100,0.00,,,0.00,Wunderground v.1.15,2013-01-09 12:25:00,
2013-01-09 07:30:00,76.8,76.8,30.09,East,83,7.0,7.0,100,0.00,,,0.00,Wunderground v.1.15,2013-01-09 12:30:00,
2013-01-09 07:40:00,77.0,77.0,30.09,East,92,6.0,7.0,100,0.00,,,0.00,Wunderground v.1.15,2013-01-09 12:40:00,
2013-01-09 07:45:00,77.2,77.2,30.10,East,97,6.0,7.0,100,0.00,,,0.00,Wunderground v.1.15,2013-01-09 12:45:00,
2013-01-09 07:55:00,77.2,77.2,30.10,ESE,107,6.0,7.0,100,0.00,,,0.00,Wunderground v.1.15,2013-01-09 12:55:00,
2013-01-09 08:05:00,77.6,77.6,30.11,ENE,65,8.0,11.0,100,0.00,,,0.00,Wunderground v.1.15,2013-01-09 13:05:00,
2013-01-09 08:15:00,77.9,77.9,30.11,East,86,8.0,9.0,100,0.00,,,0.00,Wunderground v.1.15,2013-01-09 13:15:00,
2013-01-09 08:20:00,77.7,77.7,30.11,ESE,116,7.0,7.0,100,0.00,,,0.00,Wunderground v.1.15,2013-01-09 13:20:00,
2013-01-09 08:25:00,77.9,77.9,30.11,ENE,69,9.0,9.0,100,0.00,,,0.00,Wunderground v.1.15,2013-01-09 13:25:00,
2013-01-09 08:30:00,77.9,77.9,30.12,ESE,106,9.0,9.0,100,0.00,,,0.00,Wunderground v.1.15,2013-01-09 13:30:00,
2013-01-09 08:35:00,78.1,78.1,30.12,SE,127,8.0,9.0,100,0.00,,,0.00,Wunderground v.1.15,2013-01-09 13:35:00,
2013-01-09 08:45:00,78.3,78.3,30.12,ENE,65,8.0,10.0,100,0.00,,,0.00,Wunderground v.1.15,2013-01-09 13:45:00,
2013-01-09 08:50:00,78.5,78.5,30.12,ESE,104,8.0,9.0,100,0.00,,,0.00,Wunderground v.1.15,2013-01-09 13:50:00,
2013-01-09 08:55:00,78.3,78.3,30.12,ESE,102,8.0,13.0,100,0.00,,,0.00,Wunderground v.1.15,2013-01-09 13:55:00,
2013-01-09 09:05:00,78.5,78.5,30.13,ESE,116,8.0,13.0,100,0.00,,,0.00,Wunderground v.1.15,2013-01-09 14:05:00,
2013-01-09 09:10:00,78.3,78.3,30.13,ESE,109,7.0,11.0,100,0.00,,,0.00,Wunderground v.1.15,2013-01-09 14:10:00,
2013-01-09 09:15:00,78.3,78.3,30.14,ESE,120,8.0,11.0,100,0.00,,,0.00,Wunderground v.1.15,2013-01-09 14:15:00,
2013-01-09 09:25:00,78.8,78.8,30.14,ESE,104,9.0,13.0,100,0.00,,,0.00,Wunderground v.1.15,2013-01-09 14:25:00,
2013-01-09 09:30:00,78.5,78.5,30.14,SE,131,8.0,8.0,100,0.00,,,0.00,Wunderground v.1.15,2013-01-09 14:30:00,
2013-01-09 09:35:00,79.0,79.0,30.14,ESE,121,8.0,14.0,100,0.00,,,0.00,Wunderground v.1.15,2013-01-09 14:35:00,
2013-01-09 09:40:00,79.0,79.0,30.14,ESE,109,8.0,11.0,100,0.00,,,0.00,Wunderground v.1.15,2013-01-09 14:40:00,
2013-01-09 09:50:00,79.0,79.0,30.14,East,96,7.0,7.0,100,0.00,,,0.00,Wunderground v.1.15,2013-01-09 14:50:00,
2013-01-09 09:55:00,78.8,78.8,30.14,ESE,109,7.0,10.0,100,0.00,,,0.00,Wunderground v.1.15,2013-01-09 14:55:00,
2013-01-09 10:05:00,79.2,79.2,30.15,East,95,8.0,8.0,100,0.00,,,0.00,Wunderground v.1.15,2013-01-09 15:05:00,
2013-01-09 10:10:00,78.8,78.8,30.15,ESE,117,7.0,7.0,100,0.00,,,0.00,Wunderground v.1.15,2013-01-09 15:10:00,
2013-01-09 10:15:00,79.4,79.4,30.14,SE,130,7.0,7.0,100,0.00,,,0.00,Wunderground v.1.15,2013-01-09 15:15:00,
2013-01-09 10:25:00,78.8,78.8,30.14,East,95,8.0,10.0,100,0.00,,,0.00,Wunderground v.1.15,2013-01-09 15:25:00,
2013-01-09 10:30:00,79.2,79.2,30.14,ENE,76,8.0,8.0,100,0.00,,,0.00,Wunderground v.1.15,2013-01-09 15:30:00,
2013-01-09 10:35:00,79.4,79.4,30.14,East,90,7.0,8.0,100,0.00,,,0.00,Wunderground v.1.15,2013-01-09 15:35:00,
2013-01-09 10:40:00,79.4,79.4,30.14,SE,127,8.0,8.0,100,0.00,,,0.00,Wunderground v.1.15,2013-01-09 15:40:00,
2013-01-09 10:50:00,79.6,79.6,30.14,ENE,76,7.0,14.0,100,0.00,,,0.00,Wunderground v.1.15,2013-01-09 15:50:00,
2013-01-09 11:05:00,79.8,79.8,30.13,East,88,8.0,8.0,100,0.00,,,0.00,Wunderground v.1.15,2013-01-09 16:05:00,
2013-01-09 11:10:00,79.6,79.6,30.13,East,82,8.0,8.0,100,0.00,,,0.00,Wunderground v.1.15,2013-01-09 16:10:00,
2013-01-09 11:15:00,79.4,79.4,30.12,ESE,102,8.0,8.0,100,0.00,,,0.00,Wunderground v.1.15,2013-01-09 16:15:00,
2013-01-09 11:25:00,79.6,79.6,30.12,East,82,9.0,9.0,100,0.00,,,0.00,Wunderground v.1.15,2013-01-09 16:25:00,
2013-01-09 11:30:00,79.6,79.6,30.12,SE,124,9.0,9.0,100,0.00,,,0.00,Wunderground v.1.15,2013-01-09 16:30:00,
2013-01-09 11:40:00,79.6,79.6,30.12,ESE,119,8.0,12.0,100,0.00,,,0.00,Wunderground v.1.15,2013-01-09 16:40:00,
2013-01-09 11:50:00,79.6,79.6,30.11,East,93,9.0,9.0,100,0.00,,,0.00,Wunderground v.1.15,2013-01-09 16:50:00,
2013-01-09 11:55:00,79.4,79.4,30.11,ESE,121,10.0,10.0,100,0.00,,,0.00,Wunderground v.1.15,2013-01-09 16:55:00,
2013-01-09 12:00:00,79.4,79.4,30.11,ESE,102,11.0,13.0,100,0.00,,,0.00,Wunderground v.1.15,2013-01-09 17:00:00,
2013-01-09 12:05:00,79.6,79.6,30.11,ENE,78,10.0,13.0,100,0.00,,,0.00,Wunderground v.1.15,2013-01-09 17:05:00,
2013-01-09 12:15:00,79.8,79.8,30.11,ESE,110,9.0,16.0,100,0.00,,,0.00,Wunderground v.1.15,2013-01-09 17:15:00,
2013-01-09 12:20:00,79.8,79.8,30.11,NE,54,9.0,9.0,100,0.00,,,0.00,Wunderground v.1.15,2013-01-09 17:20:00,
2013-01-09 12:25:00,79.8,79.8,30.11,ENE,59,9.0,9.0,100,0.00,,,0.00,Wunderground v.1.15,2013-01-09 17:25:00,
2013-01-09 12:30:00,79.6,79.6,30.10,ESE,104,8.0,8.0,100,0.00,,,0.00,Wunderground v.1.15,2013-01-09 17:30:00,
2013-01-09 12:35:00,79.6,79.6,30.10,East,93,8.0,10.0,100,0.00,,,0.00,Wunderground v.1.15,2013-01-09 17:35:00,
2013-01-09 12:40:00,79.8,79.8,30.10,East,83,8.0,8.0,100,0.00,,,0.00,Wunderground v.1.15,2013-01-09 17:40:00,
2013-01-09 12:45:00,79.8,79.8,30.10,ESE,102,8.0,8.0,100,0.00,,,0.00,Wunderground v.1.15,2013-01-09 17:45:00,
2013-01-09 12:50:00,79.6,79.6,30.10,East,80,9.0,12.0,100,0.00,,,0.00,Wunderground v.1.15,2013-01-09 17:50:00,
2013-01-09 12:55:00,79.8,79.8,30.10,East,79,8.0,12.0,100,0.00,,,0.00,Wunderground v.1.15,2013-01-09 17:55:00,
2013-01-09 13:05:00,79.8,79.8,30.09,ESE,110,9.0,9.0,100,0.00,,,0.00,Wunderground v.1.15,2013-01-09 18:05:00,
2013-01-09 13:10:00,79.9,79.9,30.09,ENE,75,8.0,10.0,100,0.00,,,0.00,Wunderground v.1.15,2013-01-09 18:10:00,
2013-01-09 13:15:00,79.9,79.9,30.09,East,89,8.0,10.0,100,0.00,,,0.00,Wunderground v.1.15,2013-01-09 18:15:00,
2013-01-09 13:25:00,79.9,79.9,30.09,East,82,7.0,11.0,100,0.00,,,0.00,Wunderground v.1.15,2013-01-09 18:25:00,
2013-01-09 13:30:00,79.8,79.8,30.08,ESE,107,8.0,8.0,100,0.00,,,0.00,Wunderground v.1.15,2013-01-09 18:30:00,
2013-01-09 13:40:00,79.8,79.8,30.08,East,85,9.0,9.0,100,0.00,,,0.00,Wunderground v.1.15,2013-01-09 18:40:00,
2013-01-09 13:45:00,79.6,79.6,30.08,ESE,110,9.0,9.0,100,0.00,,,0.00,Wunderground v.1.15,2013-01-09 18:45:00,
2013-01-09 13:50:00,79.6,79.6,30.08,ESE,104,8.0,10.0,100,0.00,,,0.00,Wunderground v.1.15,2013-01-09 18:50:00,
2013-01-09 13:55:00,79.6,79.6,30.08,East,89,8.0,10.0,100,0.00,,,0.00,Wunderground v.1.15,2013-01-09 18:55:00,
2013-01-09 14:00:00,79.4,79.4,30.07,ESE,120,8.0,12.0,100,0.00,,,0.00,Wunderground v.1.15,2013-01-09 19:00:00,
2013-01-09 14:05:00,79.2,79.2,30.07,ESE,119,8.0,12.0,100,0.00,,,0.00,Wunderground v.1.15,2013-01-09 19:05:00,
2013-01-09 14:10:00,79.6,79.6,30.07,East,97,9.0,9.0,100,0.00,,,0.00,Wunderground v.1.15,2013-01-09 19:10:00,
2013-01-09 14:20:00,79.4,79.4,30.08,East,100,8.0,8.0,100,0.00,,,0.00,Wunderground v.1.15,2013-01-09 19:20:00,
2013-01-09 14:25:00,79.2,79.2,30.08,ESE,120,9.0,11.0,100,0.00,,,0.00,Wunderground v.1.15,2013-01-09 19:25:00,
2013-01-09 14:30:00,79.6,79.6,30.08,ESE,102,8.0,8.0,100,0.00,,,0.00,Wunderground v.1.15,2013-01-09 19:30:00,
2013-01-09 14:35:00,79.6,79.6,30.08,East,90,8.0,12.0,100,0.00,,,0.00,Wunderground v.1.15,2013-01-09 19:35:00,
2013-01-09 14:45:00,79.8,79.8,30.08,East,97,7.0,9.0,100,0.00,,,0.00,Wunderground v.1.15,2013-01-09 19:45:00,
2013-01-09 14:50:00,79.9,79.9,30.08,East,82,7.0,7.0,100,0.00,,,0.00,Wunderground v.1.15,2013-01-09 19:50:00,
2013-01-09 14:55:00,79.9,79.9,30.08,SE,126,7.0,11.0,100,0.00,,,0.00,Wunderground v.1.15,2013-01-09 19:55:00,
2013-01-09 15:00:00,79.6,79.6,30.07,East,83,7.0,7.0,100,0.00,,,0.00,Wunderground v.1.15,2013-01-09 20:00:00,
2013-01-09 15:10:00,79.4,79.4,30.07,ENE,65,8.0,11.0,100,0.00,,,0.00,Wunderground v.1.15,2013-01-09 20:10:00,
2013-01-09 15:15:00,79.4,79.4,30.07,ESE,120,9.0,11.0,100,0.00,,,0.00,Wunderground v.1.15,2013-01-09 20:15:00,
2013-01-09 15:20:00,79.4,79.4,30.07,East,90,9.0,9.0,100,0.00,,,0.00,Wunderground v.1.15,2013-01-09 20:20:00,
2013-01-09 15:25:00,79.2,79.2,30.07,ESE,117,8.0,9.0,100,0.00,,,0.00,Wunderground v.1.15,2013-01-09 20:25:00,
2013-01-09 15:30:00,78.8,78.8,30.07,ESE,106,8.0,12.0,100,0.00,,,0.00,Wunderground v.1.15,2013-01-09 20:30:00,
2013-01-09 15:40:00,79.0,79.0,30.07,East,93,8.0,8.0,100,0.00,,,0.00,Wunderground v.1.15,2013-01-09 20:40:00,
2013-01-09 15:50:00,78.8,78.8,30.07,East,83,9.0,9.0,100,0.00,,,0.00,Wunderground v.1.15,2013-01-09 20:50:00,
2013-01-09 16:00:00,79.0,79.0,30.07,East,96,7.0,8.0,100,0.00,,,0.00,Wunderground v.1.15,2013-01-09 21:00:00,
2013-01-09 16:10:00,78.6,78.6,30.07,ESE,114,8.0,10.0,100,0.00,,,0.00,Wunderground v.1.15,2013-01-09 21:10:00,
2013-01-09 16:15:00,78.5,78.5,30.07,ENE,71,8.0,18.0,100,0.00,,,0.00,Wunderground v.1.15,2013-01-09 21:15:00,
2013-01-09 16:25:00,78.6,78.6,30.07,East,92,9.0,9.0,100,0.00,,,0.00,Wunderground v.1.15,2013-01-09 21:25:00,
2013-01-09 16:30:00,79.0,79.0,30.08,East,90,7.0,7.0,100,0.00,,,0.00,Wunderground v.1.15,2013-01-09 21:30:00,
2013-01-09 16:35:00,78.6,78.6,30.08,ENE,72,8.0,10.0,100,0.00,,,0.00,Wunderground v.1.15,2013-01-09 21:35:00,
2013-01-09 16:45:00,78.3,78.3,30.08,East,99,8.0,9.0,100,0.00,,,0.00,Wunderground v.1.15,2013-01-09 21:45:00,
2013-01-09 16:50:00,78.3,78.3,30.08,ESE,116,8.0,10.0,100,0.00,,,0.00,Wunderground v.1.15,2013-01-09 21:50:00,
2013-01-09 16:55:00,78.3,78.3,30.08,ESE,112,9.0,10.0,100,0.00,,,0.00,Wunderground v.1.15,2013-01-09 21:55:00,
2013-01-09 17:00:00,78.3,78.3,30.08,East,80,8.0,8.0,100,0.00,,,0.00,Wunderground v.1.15,2013-01-09 22:00:00,
2013-01-09 17:05:00,78.3,78.3,30.08,SE,131,8.0,8.0,100,0.00,,,0.00,Wunderground v.1.15,2013-01-09 22:05:00,
2013-01-09 17:10:00,78.3,78.3,30.08,ESE,104,8.0,11.0,100,0.00,,,0.00,Wunderground v.1.15,2013-01-09 22:10:00,
2013-01-09 17:15:00,78.1,78.1,30.08,SE,131,9.0,11.0,100,0.00,,,0.00,Wunderground v.1.15,2013-01-09 22:15:00,
2013-01-09 17:25:00,78.1,78.1,30.08,East,99,8.0,9.0,100,0.00,,,0.00,Wunderground v.1.15,2013-01-09 22:25:00,
2013-01-09 17:30:00,78.1,78.1,30.09,East,83,8.0,11.0,100,0.00,,,0.00,Wunderground v.1.15,2013-01-09 22:30:00,
2013-01-09 17:35:00,78.1,78.1,30.09,East,83,8.0,11.0,100,0.00,,,0.00,Wunderground v.1.15,2013-01-09 22:35:00,
2013-01-09 17:40:00,78.1,78.1,30.09,ESE,113,8.0,11.0,100,0.00,,,0.00,Wunderground v.1.15,2013-01-09 22:40:00,
2013-01-09 17:45:00,78.1,78.1,30.09,SE,136,8.0,11.0,100,0.00,,,0.00,Wunderground v.1.15,2013-01-09 22:45:00,
2013-01-09 17:50:00,77.9,77.9,30.09,ENE,78,8.0,13.0,100,0.00,,,0.00,Wunderground v.1.15,2013-01-09 22:50:00,
2013-01-09 18:00:00,77.9,77.9,30.09,East,90,9.0,12.0,100,0.00,,,0.00,Wunderground v.1.15,2013-01-09 23:00:00,
2013-01-09 18:05:00,77.9,77.9,30.09,East,86,8.0,12.0,100,0.00,,,0.00,Wunderground v.1.15,2013-01-09 23:05:00,
2013-01-09 18:15:00,77.9,77.9,30.10,ESE,110,9.0,12.0,100,0.00,,,0.00,Wunderground v.1.15,2013-01-09 23:15:00,
2013-01-09 18:25:00,77.9,77.9,30.10,East,85,7.0,12.0,100,0.00,,,0.00,Wunderground v.1.15,2013-01-09 23:25:00,
2013-01-09 18:30:00,77.9,77.9,30.10,East,92,8.0,11.0,100,0.00,,,0.00,Wunderground v.1.15,2013-01-09 23:30:00,
2013-01-09 18:35:00,77.9,77.9,30.10,ESE,112,8.0,11.0,100,0.00,,,0.00,Wunderground v.1.15,2013-01-09 23:35:00,
2013-01-09 18:45:00,77.9,77.9,30.11,ENE,76,7.0,8.0,100,0.00,,,0.00,Wunderground v.1.15,2013-01-09 23:45:00,
2013-01-09 18:50:00,77.9,77.9,30.11,ENE,71,7.0,7.0,100,0.00,,,0.00,Wunderground v.1.15,2013-01-09 23:50:00,
2013-01-09 18:55:00,77.9,77.9,30.11,East,89,7.0,7.0,100,0.00,,,0.00,Wunderground v.1.15,2013-01-09 23:55:00,
2013-01-09 19:05:00,77.9,77.9,30.11,ESE,114,7.0,8.0,100,0.00,,,0.00,Wunderground v.1.15,2013-01-10 00:05:00,
2013-01-09 19:10:00,77.9,77.9,30.11,ESE,121,8.0,8.0,100,0.00,,,0.00,Wunderground v.1.15,2013-01-10 00:10:00,
2013-01-09 19:15:00,77.7,77.7,30.12,East,83,8.0,8.0,100,0.00,,,0.00,Wunderground v.1.15,2013-01-10 00:15:00,
2013-01-09 19:20:00,77.9,77.9,30.12,ESE,112,7.0,11.0,100,0.00,,,0.00,Wunderground v.1.15,2013-01-10 00:20:00,
2013-01-09 19:30:00,77.7,77.7,30.12,East,85,8.0,8.0,100,0.00,,,0.00,Wunderground v.1.15,2013-01-10 00:30:00,
2013-01-09 19:35:00,77.7,77.7,30.12,ESE,106,8.0,8.0,100,0.00,,,0.00,Wunderground v.1.15,2013-01-10 00:35:00,
2013-01-09 19:45:00,77.9,77.9,30.12,ESE,102,10.0,13.0,100,0.00,,,0.00,Wunderground v.1.15,2013-01-10 00:45:00,
2013-01-09 19:50:00,77.9,77.9,30.12,ESE,102,9.0,9.0,100,0.00,,,0.00,Wunderground v.1.15,2013-01-10 00:50:00,
2013-01-09 20:00:00,77.9,77.9,30.12,ESE,121,8.0,8.0,100,0.00,,,0.00,Wunderground v.1.15,2013-01-10 01:00:00,
2013-01-09 20:10:00,77.9,77.9,30.12,ESE,117,8.0,8.0,100,0.00,,,0.00,Wunderground v.1.15,2013-01-10 01:10:00,
2013-01-09 20:15:00,77.9,77.9,30.12,East,88,8.0,10.0,100,0.00,,,0.00,Wunderground v.1.15,2013-01-10 01:15:00,
2013-01-09 20:25:00,77.9,77.9,30.12,ESE,113,8.0,8.0,100,0.00,,,0.00,Wunderground v.1.15,2013-01-10 01:25:00,
2013-01-09 20:35:00,77.9,77.9,30.12,East,82,10.0,11.0,100,0.00,,,0.00,Wunderground v.1.15,2013-01-10 01:35:00,
2013-01-09 20:45:00,77.7,77.7,30.12,ESE,114,8.0,9.0,100,0.00,,,0.00,Wunderground v.1.15,2013-01-10 01:45:00,
2013-01-09 20:55:00,77.7,77.7,30.12,East,90,10.0,16.0,100,0.00,,,0.00,Wunderground v.1.15,2013-01-10 01:55:00,
2013-01-09 21:00:00,77.7,77.7,30.12,East,99,9.0,13.0,100,0.00,,,0.00,Wunderground v.1.15,2013-01-10 02:00:00,
2013-01-09 21:05:00,77.7,77.7,30.12,ESE,117,9.0,13.0,100,0.00,,,0.00,Wunderground v.1.15,2013-01-10 02:05:00,
2013-01-09 21:10:00,77.7,77.7,30.12,ESE,104,10.0,12.0,100,0.00,,,0.00,Wunderground v.1.15,2013-01-10 02:10:00,
2013-01-09 21:15:00,77.9,77.9,30.13,SE,124,11.0,12.0,100,0.00,,,0.00,Wunderground v.1.15,2013-01-10 02:15:00,
2013-01-09 21:20:00,77.7,77.7,30.13,ESE,112,9.0,9.0,100,0.00,,,0.00,Wunderground v.1.15,2013-01-10 02:20:00,
2013-01-09 21:30:00,77.7,77.7,30.14,ENE,78,9.0,10.0,100,0.00,,,0.00,Wunderground v.1.15,2013-01-10 02:30:00,
2013-01-09 21:35:00,77.9,77.9,30.14,ESE,102,9.0,10.0,100,0.00,,,0.00,Wunderground v.1.15,2013-01-10 02:35:00,
2013-01-09 21:40:00,77.7,77.7,30.14,ESE,112,8.0,14.0,100,0.00,,,0.00,Wunderground v.1.15,2013-01-10 02:40:00,
2013-01-09 21:45:00,77.7,77.7,30.14,SE,136,7.0,14.0,100,0.00,,,0.00,Wunderground v.1.15,2013-01-10 02:45:00,
2013-01-09 21:50:00,77.7,77.7,30.14,SE,131,8.0,18.0,100,0.00,,,0.00,Wunderground v.1.15,2013-01-10 02:50:00,
2013-01-09 21:55:00,77.7,77.7,30.14,East,99,9.0,18.0,100,0.00,,,0.00,Wunderground v.1.15,2013-01-10 02:55:00,
2013-01-09 22:05:00,77.7,77.7,30.14,East,90,8.0,9.0,100,0.00,,,0.00,Wunderground v.1.15,2013-01-10 03:05:00,
2013-01-09 22:10:00,77.6,77.6,30.14,ENE,68,8.0,8.0,100,0.00,,,0.00,Wunderground v.1.15,2013-01-10 03:10:00,
2013-01-09 22:15:00,77.6,77.6,30.14,ESE,104,9.0,9.0,100,0.00,,,0.00,Wunderground v.1.15,2013-01-10 03:15:00,
2013-01-09 22:20:00,77.6,77.6,30.14,ESE,120,9.0,9.0,100,0.00,,,0.00,Wunderground v.1.15,2013-01-10 03:20:00,
2013-01-09 22:25:00,77.7,77.7,30.14,ESE,110,9.0,9.0,100,0.00,,,0.00,Wunderground v.1.15,2013-01-10 03:25:00,
2013-01-09 22:30:00,77.6,77.6,30.14,East,90,9.0,10.0,100,0.00,,,0.00,Wunderground v.1.15,2013-01-10 03:30:00,
2013-01-09 22:35:00,77.6,77.6,30.14,East,85,9.0,10.0,100,0.00,,,0.00,Wunderground v.1.15,2013-01-10 03:35:00,
2013-01-09 22:40:00,77.7,77.7,30.14,East,85,9.0,12.0,100,0.00,,,0.00,Wunderground v.1.15,2013-01-10 03:40:00,
2013-01-09 22:50:00,77.6,77.6,30.14,ENE,68,9.0,9.0,100,0.00,,,0.00,Wunderground v.1.15,2013-01-10 03:50:00,
2013-01-09 22:55:00,77.6,77.6,30.14,East,90,9.0,9.0,100,0.00,,,0.00,Wunderground v.1.15,2013-01-10 03:55:00,
2013-01-09 23:00:00,77.6,77.6,30.14,ENE,73,8.0,8.0,100,0.00,,,0.00,Wunderground v.1.15,2013-01-10 04:00:00,
2013-01-09 23:05:00,77.6,77.6,30.14,SE,128,8.0,13.0,100,0.00,,,0.00,Wunderground v.1.15,2013-01-10 04:05:00,
2013-01-09 23:15:00,77.4,77.4,30.14,NE,49,9.0,11.0,100,0.00,,,0.00,Wunderground v.1.15,2013-01-10 04:15:00,
2013-01-09 23:25:00,77.4,77.4,30.14,NE,56,9.0,12.0,100,0.00,,,0.00,Wunderground v.1.15,2013-01-10 04:25:00,
2013-01-09 23:30:00,77.4,77.4,30.14,East,85,10.0,10.0,100,0.00,,,0.00,Wunderground v.1.15,2013-01-10 04:30:00,
2013-01-09 23:35:00,77.4,77.4,30.14,East,99,11.0,13.0,100,0.00,,,0.00,Wunderground v.1.15,2013-01-10 04:35:00,
2013-01-09 23:40:00,77.4,77.4,30.14,East,96,10.0,19.0,100,0.00,,,0.00,Wunderground v.1.15,2013-01-10 04:40:00,
2013-01-09 23:50:00,77.2,77.2,30.14,ESE,103,10.0,17.0,100,0.00,,,0.00,Wunderground v.1.15,2013-01-10 04:50:00,